FW0606 Weather Reports


Display with metric or nautical units.
time (UTC)temp
F
wind
direction
speed
MPH
gust
MPH
rain 1hr
in
rain 24hr
in
rain mn
in
humidity
%
barometer
mb
20260506015535 68 0 0.0 0.0 0.00 0.00 0.00 73 1008.2
20260506015035 68 0 0.0 0.0 0.00 0.00 0.00 73 1008.3
20260506014559 68 0 0.0 0.0 0.00 0.00 0.00 73 1008.3
20260506014035 68 0 0.0 0.0 0.00 0.00 0.00 72 1008.0
20260506013535 68 0 0.0 0.0 0.00 0.00 0.00 72 1008.2
20260506013050 68 0 0.0 0.0 0.00 0.00 0.00 72 1008.1
20260506012535 69 0 0.0 0.0 0.00 0.00 0.00 71 1007.7
20260506012035 69 0 0.0 0.0 0.00 0.00 0.00 71 1008.0
20260506011556 69 0 0.0 0.0 0.00 0.00 0.00 71 1008.0
20260506011035 69 0 0.0 0.0 0.00 0.00 0.00 71 1007.9
20260506010535 69 0 0.0 0.0 0.00 0.00 0.00 71 1007.5
20260506010058 70 0 0.0 0.0 0.00 0.00 0.00 70 1007.5
20260506005535 70 0 0.0 0.0 0.00 0.00 0.00 70 1007.4
20260506005038 70 0 0.0 0.0 0.00 0.00 0.00 70 1007.6
20260506004625 71 0 0.0 0.0 0.00 0.00 0.00 70 1007.5
20260506004033 71 0 0.0 0.0 0.00 0.00 0.00 69 1006.7
20260506003536 72 0 0.0 0.0 0.00 0.00 0.00 69 1006.5
20260506003051 72 0 0.0 0.0 0.00 0.00 0.00 68 1006.9
20260506002535 72 0 0.0 0.0 0.00 0.00 0.00 68 1006.6
20260506002041 73 0 0.0 0.0 0.00 0.00 0.00 68 1006.7
20260506001546 73 0 0.0 0.0 0.00 0.00 0.00 68 1006.5
20260506001036 74 0 0.0 0.0 0.00 0.00 0.00 68 1006.7
20260506000536 74 0 0.0 0.0 0.00 0.00 0.00 67 1006.9
20260506000054 74 0 0.0 0.0 0.00 0.00 0.00 66 1006.6
20260505235535 74 0 0.0 0.0 0.00 0.00 0.00 66 1006.6
20260505235035 75 0 0.0 0.0 0.00 0.00 0.00 66 1006.7
20260505234611 75 0 0.0 0.0 0.00 0.00 0.00 65 1006.6
20260505234038 76 0 0.0 0.0 0.00 0.00 0.00 65 1006.6
20260505233535 76 0 0.0 0.0 0.00 0.00 0.00 65 1006.3
20260505233051 77 0 0.0 0.0 0.00 0.00 0.00 64 1006.4
20260505232534 78 0 0.0 0.0 0.00 0.00 0.00 64 1006.1
20260505232035 78 0 0.0 0.0 0.00 0.00 0.00 64 1006.0
20260505231554 79 0 0.0 0.0 0.00 0.00 0.00 63 1006.1
20260505231035 80 0 0.0 0.0 0.00 0.00 0.00 63 1005.9
20260505230535 80 0 0.0 0.0 0.00 0.00 0.00 63 1006.1
20260505230050 81 0 0.0 0.0 0.00 0.00 0.00 62 1006.1
20260505225534 82 0 0.0 0.0 0.00 0.00 0.00 61 1006.0
20260505225035 82 0 0.0 0.0 0.00 0.00 0.00 60 1005.9
20260505224553 83 0 0.0 0.0 0.00 0.00 0.00 60 1005.6
20260505224035 83 0 0.0 0.0 0.00 0.00 0.00 59 1005.4
20260505223535 83 0 0.0 0.0 0.00 0.00 0.00 59 1005.5
20260505223100 84 0 0.0 0.0 0.00 0.00 0.00 58 1005.5
20260505222538 85 0 0.0 0.0 0.00 0.00 0.00 57 1005.4
20260505222036 85 0 0.0 0.0 0.00 0.00 0.00 55 1005.3
20260505221559 86 0 0.0 0.0 0.00 0.00 0.00 55 1005.1
20260505221035 87 0 0.0 0.0 0.00 0.00 0.00 54 1005.2
20260505220538 88 0 0.0 0.0 0.00 0.00 0.00 54 1005.1
20260505220130 88 0 0.0 0.0 0.00 0.00 0.00 54 1005.1
20260505215535 87 0 0.0 0.0 0.00 0.00 0.00 52 1004.9
20260505215035 88 0 0.0 0.0 0.00 0.00 0.00 50 1004.8
20260505214604 88 0 0.0 0.0 0.00 0.00 0.00 48 1005.1
20260505214035 88 0 0.0 0.0 0.00 0.00 0.00 48 1005.2
20260505213535 89 0 0.0 0.0 0.00 0.00 0.00 48 1005.2
20260505213048 89 0 0.0 0.0 0.00 0.00 0.00 48 1005.2
20260505212535 89 0 0.0 0.0 0.00 0.00 0.00 48 1005.0
20260505212035 89 0 0.0 0.0 0.00 0.00 0.00 48 1005.1
20260505211554 89 0 0.0 0.0 0.00 0.00 0.00 50 1005.1
20260505211035 89 0 0.0 0.0 0.00 0.00 0.00 51 1005.2
20260505210535 90 0 0.0 0.0 0.00 0.00 0.00 53 1005.2
20260505210046 91 0 0.0 0.0 0.00 0.00 0.00 56 1005.2
20260505205532 91 0 0.0 0.0 0.00 0.00 0.00 56 1005.2
20260505205036 91 0 0.0 0.0 0.00 0.00 0.00 56 1005.3
20260505204546 91 0 0.0 0.0 0.00 0.00 0.00 57 1005.4
20260505204035 91 0 0.0 0.0 0.00 0.00 0.00 58 1005.3
20260505203535 90 0 0.0 0.0 0.00 0.00 0.00 57 1005.4
20260505203052 90 0 0.0 0.0 0.00 0.00 0.00 57 1005.4
20260505202537 89 0 0.0 0.0 0.00 0.00 0.00 57 1005.4
20260505202032 90 0 0.0 0.0 0.00 0.00 0.00 58 1005.4
20260505201554 90 0 0.0 0.0 0.00 0.00 0.00 56 1005.6
20260505201035 90 0 0.0 0.0 0.00 0.00 0.00 57 1005.8
20260505200532 89 0 0.0 0.0 0.00 0.00 0.00 60 1005.7
20260505200100 90 0 0.0 0.0 0.00 0.00 0.00 58 1005.6
20260505195535 89 0 0.0 0.0 0.00 0.00 0.00 58 1005.7
20260505195035 89 0 0.0 0.0 0.00 0.00 0.00 58 1005.7
20260505194544 89 0 0.0 0.0 0.00 0.00 0.00 60 1005.9
20260505194035 89 0 0.0 0.0 0.00 0.00 0.00 61 1005.8
20260505193532 88 0 0.0 0.0 0.00 0.00 0.00 60 1005.9
20260505193046 88 0 0.0 0.0 0.00 0.00 0.00 60 1005.9
20260505192535 89 0 0.0 0.0 0.00 0.00 0.00 60 1005.9
20260505192035 89 0 0.0 0.0 0.00 0.00 0.00 61 1005.8
20260505191547 88 0 0.0 0.0 0.00 0.00 0.00 60 1005.7
20260505191035 89 0 0.0 0.0 0.00 0.00 0.00 60 1005.8
20260505190537 88 0 0.0 0.0 0.00 0.00 0.00 62 1005.8
20260505190050 87 0 0.0 0.0 0.00 0.00 0.00 64 1005.8
20260505185535 87 0 0.0 0.0 0.00 0.00 0.00 64 1005.8
20260505185035 86 0 0.0 0.0 0.00 0.00 0.00 66 1005.7
20260505184545 86 0 0.0 0.0 0.00 0.00 0.00 66 1005.7
20260505184036 85 0 0.0 0.0 0.00 0.00 0.00 66 1005.8
20260505183535 85 0 0.0 0.0 0.00 0.00 0.00 67 1005.8
20260505183051 85 0 0.0 0.0 0.00 0.00 0.00 64 1005.9
20260505182536 85 0 0.0 0.0 0.00 0.00 0.00 63 1005.8
20260505182035 85 0 0.0 0.0 0.00 0.00 0.00 65 1005.7
20260505181547 86 0 0.0 0.0 0.00 0.00 0.00 64 1005.7
20260505181038 86 0 0.0 0.0 0.00 0.00 0.00 65 1005.8
20260505180535 86 0 0.0 0.0 0.00 0.00 0.00 66 1005.8
20260505180053 86 0 0.0 0.0 0.00 0.00 0.00 66 1005.9
20260505175535 85 0 0.0 0.0 0.00 0.00 0.00 66 1005.9
20260505175036 85 0 0.0 0.0 0.00 0.00 0.00 68 1005.9
20260505174549 85 0 0.0 0.0 0.00 0.00 0.00 67 1005.9
20260505174032 85 0 0.0 0.0 0.00 0.00 0.00 68 1005.9
20260505173533 84 0 0.0 0.0 0.00 0.00 0.00 69 1005.8
20260505173048 83 0 0.0 0.0 0.00 0.00 0.00 69 1005.8
20260505172535 82 0 0.0 0.0 0.00 0.00 0.00 70 1005.8
20260505172036 82 0 0.0 0.0 0.00 0.00 0.00 70 1005.9
20260505171547 82 0 0.0 0.0 0.00 0.00 0.00 70 1005.9
20260505171036 82 0 0.0 0.0 0.00 0.00 0.00 71 1005.9
20260505170536 82 0 0.0 0.0 0.00 0.00 0.00 71 1005.9
20260505170053 81 0 0.0 0.0 0.00 0.00 0.00 71 1006.0
20260505165535 81 0 0.0 0.0 0.00 0.00 0.00 72 1005.9
20260505165039 81 0 0.0 0.0 0.00 0.00 0.00 72 1005.9
20260505164546 81 0 0.0 0.0 0.00 0.00 0.00 72 1006.0
20260505164035 81 0 0.0 0.0 0.00 0.00 0.00 73 1005.9
20260505163536 80 0 0.0 0.0 0.00 0.00 0.00 73 1006.0
20260505163049 80 0 0.0 0.0 0.00 0.00 0.00 74 1005.9
20260505162535 79 0 0.0 0.0 0.00 0.00 0.00 74 1005.9
20260505162035 79 0 0.0 0.0 0.00 0.00 0.00 74 1005.9
20260505161553 79 0 0.0 0.0 0.00 0.00 0.00 74 1005.9
20260505161035 79 0 0.0 0.0 0.00 0.00 0.00 74 1005.8
20260505160537 79 0 0.0 0.0 0.00 0.00 0.00 74 1005.8
20260505153051 78 0 0.0 0.0 0.00 0.00 0.00 75 1005.7
20260505152536 78 0 0.0 0.0 0.00 0.00 0.00 75 1005.8
20260505152035 78 0 0.0 0.0 0.00 0.00 0.00 76 1005.8
20260505151556 78 0 0.0 0.0 0.00 0.00 0.00 77 1005.6
20260505151035 77 0 0.0 0.0 0.00 0.00 0.00 78 1005.6
20260505150535 76 0 0.0 0.0 0.00 0.00 0.00 78 1005.6
20260505140535 73 0 0.0 0.0 0.00 0.00 0.00 83 1005.6
20260505125037 71 0 0.0 0.0 0.00 0.00 0.00 87 1005.5
20260505124600 70 0 0.0 0.0 0.00 0.00 0.00 86 1005.3
20260505124036 70 0 0.0 0.0 0.00 0.00 0.00 86 1005.3
20260505123536 70 0 0.0 0.0 0.00 0.00 0.00 86 1004.9
20260505123053 70 0 0.0 0.0 0.00 0.00 0.00 86 1004.9
20260505122535 70 0 0.0 0.0 0.00 0.00 0.00 86 1005.0
20260505122035 70 0 0.0 0.0 0.00 0.00 0.00 87 1005.0
20260505121553 70 0 0.0 0.0 0.00 0.00 0.00 86 1004.7
20260505121035 70 0 0.0 0.0 0.00 0.00 0.00 86 1004.7
20260505120535 70 0 0.0 0.0 0.00 0.00 0.00 86 1004.9
20260505120101 70 0 0.0 0.0 0.00 0.00 0.00 86 1004.8
20260505115535 70 0 0.0 0.0 0.00 0.00 0.00 86 1004.7
20260505115036 70 0 0.0 0.0 0.00 0.00 0.00 86 1004.7
20260505114553 70 0 0.0 0.0 0.00 0.00 0.00 86 1004.7
20260505114036 70 0 0.0 0.0 0.00 0.00 0.00 86 1004.8
20260505113538 70 0 0.0 0.0 0.00 0.00 0.00 86 1004.6
20260505113045 70 0 0.0 0.0 0.00 0.00 0.00 86 1004.6
20260505112538 70 0 0.0 0.0 0.00 0.00 0.00 86 1004.7
20260505112036 70 0 0.0 0.0 0.00 0.00 0.00 86 1004.7
20260505111548 70 0 0.0 0.0 0.00 0.00 0.00 86 1004.6
20260505111035 70 0 0.0 0.0 0.00 0.00 0.00 86 1004.6
20260505110536 70 0 0.0 0.0 0.00 0.00 0.00 86 1004.8
20260505102035 70 0 0.0 0.0 0.00 0.00 0.00 84 1004.7
20260505101546 71 0 0.0 0.0 0.00 0.00 0.00 84 1004.5
20260505101035 71 0 0.0 0.0 0.00 0.00 0.00 84 1004.4
20260505100535 71 0 0.0 0.0 0.00 0.00 0.00 84 1004.3
20260505100048 71 0 0.0 0.0 0.00 0.00 0.00 84 1004.4
20260505095536 71 0 0.0 0.0 0.00 0.00 0.00 83 1004.5
20260505095035 71 0 0.0 0.0 0.00 0.00 0.00 83 1004.4
20260505094549 71 0 0.0 0.0 0.00 0.00 0.00 83 1004.5
20260505094035 71 0 0.0 0.0 0.00 0.00 0.00 83 1004.4
20260505093535 71 0 0.0 0.0 0.00 0.00 0.00 83 1004.5
20260505093051 71 0 0.0 0.0 0.00 0.00 0.00 83 1004.6
20260505092537 72 0 0.0 0.0 0.00 0.00 0.00 83 1004.6
20260505092036 72 0 0.0 0.0 0.00 0.00 0.00 82 1004.6
20260505091602 72 0 0.0 0.0 0.00 0.00 0.00 82 1004.6
20260505091035 72 0 0.0 0.0 0.00 0.00 0.00 82 1004.8
20260505090535 72 0 0.0 0.0 0.00 0.00 0.00 82 1004.8
20260505090050 72 0 0.0 0.0 0.00 0.00 0.00 82 1004.9
20260505085536 72 0 0.0 0.0 0.00 0.00 0.00 81 1004.8
20260505085036 72 0 0.0 0.0 0.00 0.00 0.00 81 1004.8
20260505084550 72 0 0.0 0.0 0.00 0.00 0.00 81 1004.8
20260505084036 72 0 0.0 0.0 0.00 0.00 0.00 81 1004.8
20260505083537 72 0 0.0 0.0 0.00 0.00 0.00 80 1004.9
20260505083053 72 0 0.0 0.0 0.00 0.00 0.00 80 1005.0
20260505082536 72 0 0.0 0.0 0.00 0.00 0.00 80 1004.8
20260505082036 72 0 0.0 0.0 0.00 0.00 0.00 80 1004.8
20260505081548 73 0 0.0 0.0 0.00 0.00 0.00 79 1004.9
20260505081037 73 0 0.0 0.0 0.00 0.00 0.00 79 1005.0
20260505080534 73 0 0.0 0.0 0.00 0.00 0.00 79 1005.0
20260505080053 73 0 0.0 0.0 0.00 0.00 0.00 78 1004.9
20260505075534 73 0 0.0 0.0 0.00 0.00 0.00 78 1004.9
20260505075035 73 0 0.0 0.0 0.00 0.00 0.00 78 1005.1
20260505074549 73 0 0.0 0.0 0.00 0.00 0.00 77 1005.1
20260505074035 73 0 0.0 0.0 0.00 0.00 0.00 77 1005.3
20260505073537 73 0 0.0 0.0 0.00 0.00 0.00 77 1005.3
20260505073053 73 0 0.0 0.0 0.00 0.00 0.00 77 1005.5
20260505072535 73 0 0.0 0.0 0.00 0.00 0.00 77 1005.6
20260505072035 73 0 0.0 0.0 0.00 0.00 0.00 76 1005.6
20260505071545 73 0 0.0 0.0 0.00 0.00 0.00 76 1005.7
20260505071035 73 0 0.0 0.0 0.00 0.00 0.00 76 1005.8
20260505070536 73 0 0.0 0.0 0.00 0.00 0.00 76 1005.8
20260505070055 73 0 0.0 0.0 0.00 0.00 0.00 76 1005.8
20260505065535 73 0 0.0 0.0 0.00 0.00 0.00 75 1005.9
20260505065036 73 0 0.0 0.0 0.00 0.00 0.00 75 1006.1
20260505064551 74 0 0.0 0.0 0.00 0.00 0.00 75 1006.1
20260505064035 74 0 0.0 0.0 0.00 0.00 0.00 74 1006.1
20260505063535 74 0 0.0 0.0 0.00 0.00 0.00 74 1006.2
20260505063101 74 0 0.0 0.0 0.00 0.00 0.00 74 1006.2
20260505062536 74 0 0.0 0.0 0.00 0.00 0.00 74 1006.3
20260505062034 74 0 0.0 0.0 0.00 0.00 0.00 74 1006.2
20260505061556 74 0 0.0 0.0 0.00 0.00 0.00 74 1006.4
20260505061039 74 0 0.0 0.0 0.00 0.00 0.00 74 1006.4
20260505060537 74 0 0.0 0.0 0.00 0.00 0.00 74 1006.4
20260505060055 74 0 0.0 0.0 0.00 0.00 0.00 74 1006.4
20260505055537 74 0 0.0 0.0 0.00 0.00 0.00 74 1006.3
20260505055036 74 0 0.0 0.0 0.00 0.00 0.00 74 1006.3
20260505054553 74 0 0.0 0.0 0.00 0.00 0.00 74 1006.3
20260505054038 74 0 0.0 0.0 0.00 0.00 0.00 74 1006.2
20260505053535 74 0 0.0 0.0 0.00 0.00 0.00 74 1006.2
20260505053056 74 0 0.0 0.0 0.00 0.00 0.00 74 1006.2
20260505052535 74 0 0.0 0.0 0.00 0.00 0.00 74 1006.2
20260505052035 74 0 0.0 0.0 0.00 0.00 0.00 74 1006.3
20260505051547 74 0 0.0 0.0 0.00 0.00 0.00 74 1006.3
20260505051034 74 0 0.0 0.0 0.00 0.00 0.00 74 1006.4
20260505050535 74 0 0.0 0.0 0.00 0.00 0.00 74 1006.5
20260505041555 75 0 0.0 0.0 0.00 0.00 0.00 73 1006.5
20260505041035 75 0 0.0 0.0 0.00 0.00 0.00 72 1006.5
20260505040535 75 0 0.0 0.0 0.00 0.00 0.00 72 1006.6
20260505040056 75 0 0.0 0.0 0.00 0.00 0.00 72 1006.6
20260505035535 75 0 0.0 0.0 0.00 0.00 0.00 72 1006.6
20260505035036 75 0 0.0 0.0 0.00 0.00 0.00 72 1006.7
20260505034545 75 0 0.0 0.0 0.00 0.00 0.00 72 1006.7
20260505034040 75 0 0.0 0.0 0.00 0.00 0.00 72 1006.7
20260505033536 75 0 0.0 0.0 0.00 0.00 0.00 72 1006.5
20260505033045 75 0 0.0 0.0 0.00 0.00 0.00 72 1006.5
20260505032537 75 0 0.0 0.0 0.00 0.00 0.00 72 1006.5
20260505032035 75 0 0.0 0.0 0.00 0.00 0.00 72 1006.4
20260505031553 75 0 0.0 0.0 0.00 0.00 0.00 72 1006.6
20260505031035 75 0 0.0 0.0 0.00 0.00 0.00 71 1006.6
20260505030535 75 0 0.0 0.0 0.00 0.00 0.00 71 1006.7
20260505030047 75 0 0.0 0.0 0.00 0.00 0.00 71 1006.7
20260505025535 75 0 0.0 0.0 0.00 0.00 0.00 71 1006.6
20260505025039 75 0 0.0 0.0 0.00 0.00 0.00 71 1006.6
20260505024556 75 0 0.0 0.0 0.00 0.00 0.00 71 1006.6
20260505024035 75 0 0.0 0.0 0.00 0.00 0.00 71 1006.7
20260505023537 75 0 0.0 0.0 0.00 0.00 0.00 70 1006.6
20260505023046 75 0 0.0 0.0 0.00 0.00 0.00 70 1006.6
20260505022537 75 0 0.0 0.0 0.00 0.00 0.00 70 1006.7
20260505022036 75 0 0.0 0.0 0.00 0.00 0.00 70 1006.7
20260505021548 75 0 0.0 0.0 0.00 0.00 0.00 70 1006.5
20260505021035 75 0 0.0 0.0 0.00 0.00 0.00 70 1006.4
20260505020535 75 0 0.0 0.0 0.00 0.00 0.00 70 1006.6
20260505020050 75 0 0.0 0.0 0.00 0.00 0.00 70 1006.5